Location: Arboucave
(43.6130°N, 0.4343°W)
Time: 06:27:35
(UTC+00:00)

Cosmos 1656 Rocket - Pass Details

Date: 17 November 2025
Orbit: 791 x 846 km, 71.1° (Epoch: 04 December)

Event Time Altitude Azimuth Distance (km) Brightness Sun altitude
Rises 18:19:56 0° 184° (S) 3,319 7.0 -19.0°
Reaches altitude 10° 18:22:24 10° 178° (S) 2,401 6.1 -19.4°
Maximum altitude 18:27:36 45° 107° (ESE) 1,121 3.9 -20.3°
Enters shadow 18:28:32 41° 80° (E) 1,189 4.0 -20.5°
